Regional Weather Roundup
Issued by NWS

Home | Current Version | Previous Version | Text Only | Print | Product List | Glossary On
Versions: 1 2 3 4 5 6 7 8 9 10 11 12 13 14 15 16 17 18 19 20 21 22 23 24 25 26 27 28 29 30 31 32 33 34 35 36 37 38 39 40 41 42 43 44 45 46 47 48 49 50
000
ASUS43 KMKX 250300
RWRWI

WISCONSIN REGIONAL WEATHER ROUNDUP
NATIONAL WEATHER SERVICE MILWAUKEE/SULLIVAN WI
1000 PM CDT MON APR 24 2017

NOTE: "FAIR" INDICATES FEW OR NO CLOUDS BELOW 12,000 FEET WITH NO
SIGNIFICANT WEATHER AND/OR OBSTRUCTIONS TO VISIBILITY.

WIZ001-002-006>008-014>016-023>028-250400-
NORTHWEST WISCONSIN

CITY           SKY/WX    TMP DP  RH WIND       PRES   REMARKS
SUPERIOR ARPT  CLOUDY    37  34  91 E17G29    29.68F WCI  27
ASHLAND        CLOUDY    39  35  86 E6        29.69R WCI  35
HAYWARD        CLOUDY    62  31  31 SE7       29.64S
SIREN          CLOUDY    63  32  31 S8        29.59F
CUMBERLAND     CLOUDY    59  32  36 SE9       29.62F
RICE LAKE      CLOUDY    63  30  28 SE9       29.64F
CHETEK         CLOUDY    63  33  32 SE10      29.64S
LADYSMITH      CLOUDY    62  32  32 S7        29.69R
EAU CLAIRE     NOT AVBL
MENOMONIE      CLOUDY    63  32  31 SE8       29.63S
NEW RICHMOND   CLOUDY    61  32  33 SE7       29.60S
OSCEOLA        CLOUDY    63  33  32 SE8       29.60F
$$

WIZ003>005-009-010-017-018-250400-
NORTH CENTRAL WISCONSIN

CITY           SKY/WX    TMP DP  RH WIND       PRES   REMARKS
MANITOWISH WTR CLOUDY    56  37  47 SE10      29.69F
ARBOR VITAE    CLOUDY    58  39  49 SE12      29.71S
WOODRUFF       CLOUDY    58  39  49 SE12      29.71S
RHINELANDER    CLOUDY    57  36  45 SE10      29.75R
EAGLE RIVER    CLOUDY    54  34  47 SE12      29.75R
LAND O LAKES   MOCLDY    55  36  49 SE13G22   29.76R
PHILLIPS       CLOUDY    62  32  32 S12G23    29.69R
TOMAHAWK       CLOUDY    56  37  48 SE3       29.72F
MEDFORD        CLOUDY    57  37  47 S7        29.71R
MERRILL        MOCLDY    58  38  46 SE12      29.72F
$$

WIZ029-030-035-036-043>047-250400-
CENTRAL WISCONSIN

CITY           SKY/WX    TMP DP  RH WIND       PRES   REMARKS
WAUSAU         CLOUDY    59  33  37 SE12      29.71R
MOSINEE        CLEAR     57  34  41 SE8       29.73S
MARSHFIELD     CLOUDY    60  33  36 SE7       29.70R
STEVENS POINT  CLOUDY    59  30  34 SE10      29.72S
WAUPACA        CLOUDY    60  29  30 SE10      29.74F
WAUTOMA        MOCLDY    62  31  31 SE10      29.73S
WISC RAPIDS    NOT AVBL
CAMP DOUGLAS   NOT AVBL
$$

WIZ011>013-019>022-031-037>040-048>050-250400-
NORTHEAST WISCONSIN

CITY           SKY/WX    TMP DP  RH WIND       PRES   REMARKS
ANTIGO         CLOUDY    54  33  45 SE15      29.74S
SHAWANO        CLOUDY    60  31  33 SE7       29.76F
OCONTO         CLOUDY    46  37  70 E6        29.81F
STURGEON BAY   CLOUDY    45  34  65 E8        29.81F
GREEN BAY      CLOUDY    52  37  56 E8        29.78F
MANITOWOC      NOT AVBL
APPLETON       MOCLDY    55  30  38 SE9       29.75F
CLINTONVILLE   CLOUDY    59  28  31 SE10G18   29.75R
OSHKOSH        MOCLDY    57  33  40 SE8       29.75F
$$

WIZ032>034-041-042-053>061-250400-
SOUTHWEST WISCONSIN

CITY           SKY/WX    TMP DP  RH WIND       PRES   REMARKS
LA CROSSE      CLOUDY    68  29  23 SE7       29.63S
SPARTA         CLOUDY    66  30  26 SE8       29.66S
VIROQUA        CLOUDY    64  27  24 SE13      29.66S
BOSCOBEL       CLOUDY    68  30  24 VRB3      29.66S
PRAIRIE DU CHI CLOUDY    68  24  19 SE8       29.64F
PLATTEVILLE    MOCLDY    65  33  30 SE13      29.69R
$$

WIZ056-057-062-063-064-067-068-250400-
SOUTH CENTRAL WISCONSIN

CITY           SKY/WX    TMP DP  RH WIND       PRES   REMARKS
REEDSBURG      MOCLDY    63  35  34 SE7G16    29.69S
BARABOO/DELLS  MOCLDY    62  32  32 SE13G21   29.70F
LONE ROCK      NOT AVBL
MINERAL POINT  CLOUDY    64  30  27 SE12      29.71R
MADISON        CLOUDY    62  31  31 SE16      29.72F
MIDDLETON      CLOUDY    64  32  30 SE12G18   29.72F
WATERTOWN      CLOUDY    57  32  39 E7        29.77S
MONROE         CLOUDY    63  30  29 SE13G20   29.73S
JANESVILLE     CLOUDY    59  32  36 E10       29.74F
$$

WIZ051-052-058>065-066-070>072-250400-
SOUTHEAST WISCONSIN

CITY           SKY/WX    TMP DP  RH WIND       PRES   REMARKS
MILWAUKEE      MOCLDY    51  32  48 CALM      29.79S
WAUKESHA       NOT AVBL
MILWAUKEE/TIMM CLOUDY    50  30  46 CALM      29.80S
RACINE         CLEAR     51  33  50 SE3       29.80S
KENOSHA        CLEAR     44  35  70 NE3       29.79R
FOND DU LAC    CLOUDY    57  30  35 SE16      29.75F
SHEBOYGAN      CLOUDY    45  36  70 E3        29.80S
WEST BEND      CLOUDY    48  32  53 CALM      29.80S
JUNEAU         MOCLDY    56  34  43 E8        29.77F
$$

LSZ147-162-250400-
LAKE SUPERIOR

STATION/POSITION TIME  TEMP    WIND        PRES    WAVE
                       AIR SEA DIR/SP/G            HT/PER
                 (UTC) (F)     (DEG/KT/KT) (MB)    (FT/S)
DEVILS ISLAND    0200   37      60/ 20/ 24 1006.7R
PORT WING        0230   38      40/ 16/ 20 1005.4F
SAXON HARBOR     0230   40      CALM  /  2 1005.1S
$$

LMZ867-665-643>646-250400-
LAKE MICHIGAN

STATION/POSITION TIME  TEMP    WIND        PRES    WAVE
                       AIR SEA DIR/SP/G            HT/PER
                 (UTC) (F)     (DEG/KT/KT) (MB)    (FT/S)
CHAMBERS ISLAND  0240   45      80/  6/  8 1009.8F
N MID LAKE BUOY  0150   41 37   80/ 10/ 12 1011.8F   2/ 4
NORTHPORT PIER   0240   42     140/  3/  4 1010.5F
SISTER BAY       0206   44      90/ 11/ 14   N/A
ALGOMA LAKESHORE 0144          100/  5/  6   N/A
KEWAUNEE LAKESHO 0230   43      70/  2/  3 1009.4F
SHEBOYGAN LAKESH 0200   45     120/  3/  4 1009.5R
PORT WASHINGTON  0240   48     280/  2/  3 1010.2S
MILWAUKEE LAKESH 0240   47      30/  2/  3   N/A
S MID LAKE BUOY  0150   49 42   70/  8/ 10 1009.4F   1
KENOSHA   LAKESH 0200   51     140/  1/  8 1008.5
$$

TC  - TEMPERATURE IN CELSIUS
VSB - VISIBILITY IN STATUTE MILES
WCI - WIND CHILL INDEX
HX  - HEAT INDEX





USA.gov is the U.S. government's official web portal to all federal, state and local government web resources and services.